New Orleans, LA

3:25 AM CDT on March 28, 2017 (GMT -0500)
New Orleans International

Weather History for KMSY - December, 2013

Change the Weather History Date:

Tuesday, December 10, 2013

  Actual Average Record
Temperature  
Mean Temperature 46 °F -  
Max Temperature 54 °F 64 °F 81 °F (1972)
Min Temperature 39 °F 45 °F 30 °F (1962)
Degree Days  
Heating Degree Days 18    
Moisture  
Dew Point 39 °F    
Average Humidity 77    
Maximum Humidity 100    
Minimum Humidity 50    
Precipitation  
Precipitation 0.12 in - - ()
Sea Level Pressure  
Sea Level Pressure 30.29 in    
Wind  
Wind Speed 15 mph (North)    
Max Wind Speed 22 mph    
Max Gust Speed 31 mph    
Visibility 9 miles    
Events Rain    
Averages and records for this station are not official NWS values.
T = Trace of Precipitation, MM = Missing Value Source: NWS Daily Summary

Daily Weather History Graph

Daily Weather History Graph

Search for Another Location

Airport or City:

Trip Planner

Search our weather history database for the weather conditions in past years. The results will help you decide how hot, cold, wet, or windy it might be!

Date:

Astronomy

Dec. 10, 2013 Rise Set
Actual Time 6:46 AM CST 5:01 PM CST
Civil Twilight 6:19 AM CST 5:28 PM CST
Nautical Twilight 5:50 AM CST 5:57 PM CST
Astronomical Twilight 5:21 AM CST 6:26 PM CST
Moon 12:41 PM CST (12/10) 12:28 AM CST (12/10)
Length of Visible Light 11h 08m
Length of Day
10h 15m
Waxing Gibbous, 62% of the Moon is Illuminated
Dec 10
Waxing Gibbous
Dec 17
Full
Dec 25
Last Quarter
Jan 1
New
Jan 7
First Quarter

Hourly Weather History & Observations

Time (CST) Temp. Windchill Dew Point Humidity Pressure Visibility Wind Dir Wind Speed Gust Speed Precip Events Conditions
12:53 AM 51.1 °F - 51.1 °F 100% 30.13 in 0.2 mi NW 13.8 mph 24.2 mph N/A   Overcast
1:12 AM 50.0 °F - 50.0 °F 100% 30.12 in 0.2 mi NNW 12.7 mph 21.9 mph N/A   Overcast
1:53 AM 48.0 °F - 46.9 °F 96% 30.15 in 0.2 mi NNW 18.4 mph 23.0 mph 0.01 in Rain Light Rain
2:39 AM 46.4 °F 39.0 °F 44.6 °F 93% 30.17 in 10.0 mi NNW 19.6 mph 25.3 mph 0.03 in   Overcast
2:53 AM 45.0 °F 38.5 °F 43.0 °F 93% 30.19 in 3.0 mi NNW 13.8 mph 25.3 mph 0.10 in Rain Rain
3:53 AM 45.0 °F 38.5 °F 43.0 °F 93% 30.20 in 10.0 mi North 13.8 mph 19.6 mph 0.01 in   Overcast
4:53 AM 43.0 °F 36.0 °F 41.0 °F 93% 30.24 in 10.0 mi NNW 13.8 mph 23.0 mph N/A   Mostly Cloudy
5:53 AM 43.0 °F 37.2 °F 41.0 °F 93% 30.25 in 10.0 mi NNW 10.4 mph - N/A   Mostly Cloudy
6:53 AM 42.1 °F 34.5 °F 39.9 °F 92% 30.29 in 10.0 mi NNW 15.0 mph 23.0 mph N/A   Overcast
7:42 AM 42.8 °F 34.8 °F 37.4 °F 81% 30.31 in 10.0 mi North 17.3 mph 31.1 mph N/A   Mostly Cloudy
7:53 AM 41.0 °F 31.4 °F 36.0 °F 82% 30.32 in 10.0 mi North 21.9 mph 28.8 mph N/A   Mostly Cloudy
8:53 AM 39.9 °F 31.8 °F 36.0 °F 86% 30.35 in 10.0 mi North 15.0 mph 24.2 mph N/A   Overcast
9:53 AM 39.9 °F 31.8 °F 35.1 °F 83% 30.38 in 10.0 mi North 15.0 mph 24.2 mph N/A   Overcast
10:53 AM 41.0 °F 33.1 °F 36.0 °F 82% 30.37 in 10.0 mi North 15.0 mph 24.2 mph N/A   Overcast
11:35 AM 44.6 °F 37.2 °F 37.4 °F 76% 30.35 in 10.0 mi North 17.3 mph - N/A   Overcast
11:53 AM 44.1 °F 37.1 °F 37.0 °F 76% 30.35 in 10.0 mi North 15.0 mph - N/A   Mostly Cloudy
12:53 PM 46.0 °F 39.9 °F 37.0 °F 71% 30.32 in 10.0 mi North 13.8 mph 19.6 mph N/A   Mostly Cloudy
1:53 PM 48.9 °F - 37.9 °F 66% 30.29 in 10.0 mi NNE 12.7 mph - 0.01 in   Mostly Cloudy
2:53 PM 51.1 °F - 37.0 °F 59% 30.29 in 10.0 mi North 15.0 mph - N/A   Mostly Cloudy
3:53 PM 51.1 °F - 37.0 °F 59% 30.30 in 10.0 mi NNE 16.1 mph - N/A   Mostly Cloudy
4:53 PM 48.9 °F - 36.0 °F 61% 30.31 in 10.0 mi North 15.0 mph - N/A   Mostly Cloudy
5:53 PM 48.0 °F - 35.1 °F 61% 30.33 in 10.0 mi NNE 13.8 mph - N/A   Mostly Cloudy
6:53 PM 46.9 °F - 36.0 °F 66% 30.34 in 10.0 mi NNE 16.1 mph - N/A   Partly Cloudy
7:53 PM 46.0 °F 39.6 °F 35.1 °F 66% 30.36 in 10.0 mi NE 15.0 mph - N/A   Partly Cloudy
8:53 PM 46.0 °F 40.6 °F 35.1 °F 66% 30.36 in 10.0 mi NE 11.5 mph 20.7 mph N/A   Partly Cloudy
9:53 PM 46.0 °F 39.9 °F 35.1 °F 66% 30.36 in 10.0 mi NE 13.8 mph - N/A   Partly Cloudy
10:53 PM 46.0 °F 40.2 °F 35.1 °F 66% 30.36 in 10.0 mi ENE 12.7 mph - N/A   Partly Cloudy
11:53 PM 45.0 °F 38.5 °F 34.0 °F 65% 30.35 in 10.0 mi ENE 13.8 mph - N/A   Partly Cloudy